Location: Alvis C Story Elementary School
(33.0968°N, 96.6364°W)
Time: 05:40:44
(UTC+00:00)

Cosmos 2228 Rocket - Pass Details

Date: 28 June 2022
Orbit: 618 x 651 km, 82.5° (Epoch: 12 August)

Event Time Altitude Azimuth Distance (km) Brightness Sun altitude
Rises 10:16:21 0° 3° (N) 2,906 7.2 -12.0°
Reaches altitude 10° 10:18:43 10° 13° (NNE) 2,000 6.5 -11.6°
Maximum altitude 10:22:49 36° 80° (E) 997 4.8 -10.9°
Drops below altitude 10° 10:26:55 10° 147° (SSE) 2,006 5.6 -10.2°
Sets 10:29:17 0° 156° (SSE) 2,915 6.4 -9.8°
